Date,TemperatureHighF,TemperatureAvgF,TemperatureLowF,DewpointHighF,DewpointAvgF,DewpointLowF,HumidityHigh,HumidityAvg,HumidityLow,PressureMaxIn,PressureMinIn,WindSpeedMaxMPH,WindSpeedAvgMPH,GustSpeedMaxMPH,PrecipitationSumIn
2013-3-1,36.0,27.3,19.0,20.7,15.1,8.1,70,60,49,30.22,30.13,36,10,39,0.07
2013-3-2,43.0,35.1,28.0,25.6,21.8,18.5,75,59,39,30.27,29.98,36,8,41,0.00
2013-3-3,43.0,37.1,32.0,26.2,21.5,17.1,76,54,41,30.01,29.62,42,11,58,0.00
2013-3-4,33.0,21.5,13.0,26.6,17.6,4.1,100,86,67,30.02,29.67,19,5,26,0.00
2013-3-5,42.0,27.6,12.0,14.5,5.0,0.5,68,40,26,30.11,30.01,18,6,24,0.05
2013-3-6,48.0,37.1,26.0,21.5,12.0,2.1,50,35,24,30.04,29.79,16,5,24,0.00
2013-3-7,48.0,39.0,31.0,22.9,17.7,12.8,55,42,29,29.95,29.81,16,5,18,0.00
2013-3-8,40.0,31.8,25.0,26.2,19.4,10.2,100,62,43,29.92,29.61,15,3,15,0.00
2013-3-9,25.0,22.5,13.0,25.0,22.2,11.1,100,99,92,29.91,29.59,15,3,23,0.00
2013-3-10,34.0,21.7,9.0,24.9,16.1,7.1,94,80,66,30.00,29.91,18,4,26,0.39
2013-3-11,34.0,27.1,20.0,22.7,18.6,13.6,100,72,58,29.98,29.80,42,11,50,0.01
2013-3-12,36.0,24.5,16.0,31.6,21.4,16.0,100,89,62,30.11,29.97,24,4,28,0.05
2013-3-13,47.0,39.1,33.0,26.3,22.9,19.9,65,53,40,30.22,30.11,23,7,41,0.07
2013-3-14,53.0,43.8,38.0,25.7,21.8,19.4,53,42,30,30.27,30.12,23,6,37,0.00
2013-3-15,56.0,47.6,41.0,27.7,23.6,20.5,59,39,30,30.13,29.91,27,7,36,0.00
2013-3-16,42.0,35.7,30.0,33.3,27.6,22.9,89,73,58,29.97,29.77,19,4,28,0.00
2013-3-17,39.0,31.0,19.0,29.4,21.1,14.1,88,67,41,29.79,29.50,40,9,46,0.01
2013-3-18,30.0,23.2,17.0,16.9,12.4,5.9,82,63,53,29.85,29.72,33,11,52,0.00
2013-3-19,37.0,27.5,18.0,13.0,3.5,-4.0,59,37,21,30.17,29.85,46,12,60,0.00
2013-3-20,45.0,32.9,14.0,22.9,12.9,0.0,68,45,29,30.16,29.66,28,7,40,0.00
2013-3-21,42.0,32.3,22.0,26.9,19.3,10.0,77,59,44,29.74,29.53,39,9,58,0.00
2013-3-22,30.0,21.6,15.0,19.7,14.5,7.9,99,75,56,29.74,29.58,18,5,22,0.00
2013-3-23,15.0,9.6,5.0,14.7,8.4,3.1,99,95,90,29.91,29.72,16,3,19,0.00
2013-3-24,14.0,8.7,2.0,10.3,5.8,0.0,93,88,77,29.94,29.83,15,3,23,0.00
2013-3-25,22.0,13.1,4.0,16.7,8.5,1.7,93,82,72,30.01,29.95,9,3,15,0.00
2013-3-26,43.0,29.5,14.0,24.2,17.2,6.2,73,61,40,29.99,29.81,25,6,35,0.28
2013-3-27,45.0,33.5,24.0,30.7,24.5,18.4,93,71,40,30.02,29.92,23,5,33,0.00
2013-3-28,46.0,36.6,28.0,31.1,25.0,19.3,79,64,44,30.15,30.02,11,4,13,0.00
2013-3-29,49.0,39.3,30.0,30.7,26.7,22.7,78,61,44,30.17,30.08,26,6,35,0.00
2013-3-30,49.0,38.4,30.0,30.7,26.3,22.4,99,64,37,30.19,30.03,26,6,42,0.00
2013-3-31,56.0,40.5,26.0,30.9,21.3,13.5,100,54,22,30.18,29.98,19,5,26,0.00